TimeCDT,TemperatureF,Dew PointF,Humidity,Sea Level PressureIn,VisibilityMPH,Wind Direction,Wind SpeedMPH,Gust SpeedMPH,PrecipitationIn,Events,Conditions,WindDirDegrees,DateUTC
12:14 AM,55.4,50.0,82,29.58,10.0,WSW,6.9,-,N/A,,Scattered Clouds,250,2013-06-01 05:14:00
12:33 AM,53.6,50.0,88,29.58,10.0,SW,8.1,-,N/A,,Mostly Cloudy,230,2013-06-01 05:33:00
12:54 AM,55.4,51.8,88,29.59,10.0,WSW,13.8,-,N/A,,Overcast,240,2013-06-01 05:54:00
1:13 AM,55.4,51.8,88,29.59,10.0,WSW,11.5,-,N/A,,Overcast,240,2013-06-01 06:13:00
1:34 AM,55.4,51.8,88,29.58,10.0,SW,9.2,-,N/A,,Overcast,230,2013-06-01 06:34:00
1:54 AM,55.4,51.8,88,29.59,10.0,SW,8.1,-,N/A,,Mostly Cloudy,220,2013-06-01 06:54:00
2:13 AM,55.4,51.8,88,29.58,10.0,SW,6.9,-,N/A,,Overcast,230,2013-06-01 07:13:00
2:34 AM,55.4,51.8,88,29.57,10.0,SW,10.4,-,N/A,,Overcast,230,2013-06-01 07:34:00
2:54 AM,55.4,51.8,88,29.57,5.0,SW,8.1,-,N/A,,Overcast,220,2013-06-01 07:54:00
3:13 AM,55.4,51.8,88,29.56,10.0,SW,9.2,-,N/A,,Overcast,230,2013-06-01 08:13:00
3:34 AM,55.4,53.6,94,29.56,7.0,SW,9.2,-,N/A,,Overcast,220,2013-06-01 08:34:00
3:54 AM,55.4,53.6,94,29.56,7.0,SSW,5.8,-,N/A,,Overcast,210,2013-06-01 08:54:00
4:13 AM,55.4,53.6,94,29.56,10.0,South,6.9,-,N/A,,Overcast,180,2013-06-01 09:13:00
4:34 AM,55.4,53.6,94,29.57,10.0,South,4.6,-,N/A,,Overcast,190,2013-06-01 09:34:00
4:54 AM,55.4,53.6,94,29.57,10.0,WSW,4.6,-,N/A,,Overcast,240,2013-06-01 09:54:00
5:13 AM,55.4,53.6,94,29.57,10.0,WSW,4.6,-,N/A,,Overcast,240,2013-06-01 10:13:00
5:34 AM,57.2,53.6,88,29.59,10.0,SW,5.8,-,N/A,,Overcast,230,2013-06-01 10:34:00
5:54 AM,57.2,53.6,88,29.60,10.0,Calm,Calm,-,N/A,,Overcast,0,2013-06-01 10:54:00
6:13 AM,57.2,53.6,88,29.60,10.0,Calm,Calm,-,N/A,,Overcast,0,2013-06-01 11:13:00
6:34 AM,57.2,55.4,94,29.60,10.0,Calm,Calm,-,N/A,,Overcast,0,2013-06-01 11:34:00
6:54 AM,59.0,55.4,88,29.61,10.0,Calm,Calm,-,N/A,,Overcast,0,2013-06-01 11:54:00
7:13 AM,59.0,55.4,88,29.61,10.0,NW,5.8,-,N/A,,Overcast,310,2013-06-01 12:13:00
7:34 AM,59.0,55.4,88,29.62,10.0,NW,5.8,-,N/A,,Overcast,320,2013-06-01 12:34:00
7:53 AM,59.0,55.4,88,29.64,10.0,NNW,8.1,-,N/A,,Overcast,340,2013-06-01 12:53:00
8:14 AM,59.0,55.4,88,29.65,10.0,NNW,8.1,-,N/A,,Overcast,340,2013-06-01 13:14:00
8:34 AM,59.0,55.4,88,29.66,5.0,North,8.1,-,N/A,Rain,Rain,350,2013-06-01 13:34:00
8:53 AM,59.0,55.4,88,29.67,4.0,North,9.2,16.1,N/A,,Overcast,350,2013-06-01 13:53:00
9:14 AM,60.8,55.4,82,29.68,4.0,North,9.2,-,N/A,Rain,Rain,350,2013-06-01 14:14:00
9:34 AM,60.8,55.4,82,29.69,10.0,North,13.8,19.6,N/A,,Overcast,360,2013-06-01 14:34:00
9:53 AM,60.8,55.4,82,29.70,10.0,North,20.7,27.6,N/A,,Overcast,350,2013-06-01 14:53:00
10:14 AM,59.0,53.6,82,29.71,10.0,North,21.9,28.8,N/A,,Overcast,350,2013-06-01 15:14:00
10:34 AM,59.0,53.6,82,29.72,10.0,North,20.7,27.6,N/A,,Overcast,350,2013-06-01 15:34:00
10:53 AM,59.0,53.6,82,29.74,10.0,NNW,16.1,23.0,N/A,,Overcast,340,2013-06-01 15:53:00
11:14 AM,59.0,53.6,82,29.75,10.0,NNW,15.0,20.7,N/A,,Overcast,340,2013-06-01 16:14:00
11:34 AM,59.0,51.8,77,29.76,10.0,NNW,18.4,26.5,N/A,,Overcast,340,2013-06-01 16:34:00
11:53 AM,59.0,51.8,77,29.77,10.0,NNW,20.7,26.5,N/A,,Overcast,340,2013-06-01 16:53:00
12:14 PM,59.0,51.8,77,29.78,10.0,NNW,19.6,25.3,N/A,,Overcast,340,2013-06-01 17:14:00
12:34 PM,59.0,51.8,77,29.79,10.0,NNW,16.1,23.0,N/A,,Overcast,340,2013-06-01 17:34:00
12:53 PM,59.0,50.0,72,29.80,10.0,NNW,18.4,26.5,N/A,,Overcast,340,2013-06-01 17:53:00
1:14 PM,59.0,50.0,72,29.81,10.0,NNW,17.3,25.3,N/A,,Overcast,330,2013-06-01 18:14:00
1:34 PM,59.0,50.0,72,29.82,10.0,NNW,19.6,24.2,N/A,,Overcast,340,2013-06-01 18:34:00
1:53 PM,59.0,50.0,72,29.83,10.0,NNW,19.6,28.8,N/A,,Overcast,340,2013-06-01 18:53:00
2:14 PM,59.0,50.0,72,29.84,10.0,NNW,18.4,26.5,N/A,,Overcast,340,2013-06-01 19:14:00
2:33 PM,57.2,48.2,72,29.85,10.0,NNW,19.6,28.8,N/A,,Overcast,340,2013-06-01 19:33:00
2:54 PM,55.4,48.2,77,29.86,10.0,NNW,19.6,27.6,N/A,,Overcast,330,2013-06-01 19:54:00
3:14 PM,55.4,50.0,82,29.87,10.0,North,17.3,-,N/A,,Overcast,350,2013-06-01 20:14:00
3:33 PM,55.4,48.2,77,29.87,10.0,NNW,19.6,26.5,N/A,,Overcast,340,2013-06-01 20:33:00
3:54 PM,55.4,48.2,77,29.88,10.0,NNW,17.3,25.3,N/A,,Overcast,340,2013-06-01 20:54:00
4:13 PM,55.4,46.4,72,29.89,10.0,NNW,25.3,31.1,N/A,,Overcast,340,2013-06-01 21:13:00
4:33 PM,55.4,46.4,72,29.89,10.0,North,20.7,27.6,N/A,,Overcast,350,2013-06-01 21:33:00
4:54 PM,55.4,46.4,72,29.90,10.0,NNW,20.7,26.5,N/A,,Overcast,340,2013-06-01 21:54:00
5:13 PM,55.4,44.6,67,29.91,10.0,North,24.2,29.9,N/A,,Overcast,350,2013-06-01 22:13:00
5:34 PM,55.4,44.6,67,29.92,10.0,North,19.6,26.5,N/A,,Overcast,350,2013-06-01 22:34:00
5:54 PM,55.4,44.6,67,29.92,10.0,North,20.7,28.8,N/A,,Overcast,350,2013-06-01 22:54:00
6:13 PM,53.6,44.6,72,29.93,10.0,North,20.7,31.1,N/A,,Overcast,350,2013-06-01 23:13:00
6:34 PM,53.6,44.6,72,29.93,10.0,North,19.6,31.1,N/A,,Overcast,350,2013-06-01 23:34:00
6:54 PM,53.6,44.6,72,29.94,10.0,North,20.7,26.5,N/A,,Overcast,350,2013-06-01 23:54:00
7:13 PM,53.6,44.6,72,29.95,10.0,North,23.0,28.8,N/A,,Overcast,360,2013-06-02 00:13:00
7:34 PM,53.6,44.6,72,29.95,10.0,North,18.4,25.3,N/A,,Overcast,350,2013-06-02 00:34:00
7:54 PM,53.6,44.6,72,29.97,10.0,North,17.3,26.5,N/A,,Overcast,360,2013-06-02 00:54:00
8:13 PM,53.6,44.6,72,29.97,10.0,North,15.0,21.9,N/A,,Overcast,360,2013-06-02 01:13:00
8:34 PM,53.6,44.6,72,29.98,10.0,North,19.6,26.5,N/A,,Overcast,350,2013-06-02 01:34:00
8:53 PM,51.8,46.4,82,29.97,7.0,North,15.0,24.2,N/A,,Overcast,350,2013-06-02 01:53:00
9:14 PM,53.6,46.4,77,29.98,10.0,North,17.3,24.2,N/A,,Overcast,350,2013-06-02 02:14:00
9:34 PM,51.8,46.4,82,29.99,10.0,North,13.8,25.3,N/A,,Overcast,350,2013-06-02 02:34:00
9:53 PM,51.8,46.4,82,30.01,5.0,NNW,9.2,-,N/A,Rain,Heavy Rain,340,2013-06-02 02:53:00
10:14 PM,51.8,46.4,82,30.02,10.0,North,11.5,-,N/A,,Overcast,350,2013-06-02 03:14:00
10:33 PM,51.8,46.4,82,30.03,10.0,North,15.0,20.7,N/A,,Overcast,350,2013-06-02 03:33:00
10:54 PM,51.8,46.4,82,30.04,10.0,NNW,9.2,-,N/A,,Overcast,340,2013-06-02 03:54:00
11:13 PM,51.8,46.4,82,30.04,10.0,NNW,13.8,18.4,N/A,,Overcast,340,2013-06-02 04:13:00
11:34 PM,51.8,46.4,82,30.04,10.0,North,11.5,-,N/A,,Overcast,350,2013-06-02 04:34:00
11:54 PM,51.8,46.4,82,30.04,10.0,North,10.4,-,N/A,,Overcast,360,2013-06-02 04:54:00